KE0RUZ Weather Reports


Display with metric or nautical units.
time (UTC)temp
F
wind
direction
speed
MPH
gust
MPH
rain 1hr
in
rain 24hr
in
rain mn
in
humidity
%
barometer
mb
20260509191540 81 243 2.0 5.0 0.00 0.01 0.01 39 1012.5
20260509190045 81 333 5.0 9.0 0.00 0.01 0.01 42 1012.5
20260509184552 81 34 1.0 5.0 0.00 0.01 0.01 44 1012.4
20260509183118 80 333 2.0 7.0 0.00 0.01 0.01 46 1012.5
20260509181606 80 232 2.0 7.0 0.00 0.01 0.01 53 1012.8
20260509180049 80 332 3.0 8.0 0.00 0.01 0.01 41 1012.9
20260509174545 79 304 4.0 7.0 0.00 0.01 0.01 46 1012.9
20260509173046 79 313 1.0 5.0 0.00 0.01 0.01 47 1013.0
20260509171544 78 288 3.0 6.0 0.00 0.01 0.01 50 1013.0
20260509170043 78 300 2.0 8.0 0.00 0.01 0.01 52 1013.0
20260509164543 77 320 1.0 4.0 0.00 0.01 0.01 53 1013.1
20260509163053 76 323 3.0 5.0 0.00 0.01 0.01 52 1013.0
20260509161538 75 214 1.0 5.0 0.00 0.01 0.01 59 1013.0
20260509160047 74 240 2.0 6.0 0.00 0.01 0.01 61 1013.0
20260509154551 73 238 3.0 4.0 0.00 0.01 0.01 63 1013.0
20260509153046 72 18 1.0 8.0 0.00 0.01 0.01 69 1013.0
20260509151545 71 352 4.0 9.0 0.00 0.01 0.01 71 1013.0
20260509150049 70 235 2.0 6.0 0.00 0.01 0.01 78 1013.1
20260509144553 68 0 1.0 5.0 0.00 0.01 0.01 81 1013.0
20260509143043 66 310 2.0 6.0 0.00 0.01 0.01 85 1013.0
20260509141543 64 338 1.0 3.0 0.00 0.01 0.01 90 1013.0
20260509140055 63 307 1.0 5.0 0.00 0.01 0.01 94 1012.8
20260509134546 62 238 1.0 3.0 0.00 0.01 0.01 97 1012.6
20260509133046 61 0 0.0 2.0 0.00 0.01 0.01 97 1012.8
20260509131547 59 225 1.0 4.0 0.00 0.01 0.01 98 1012.6
20260509130053 58 239 1.0 2.0 0.00 0.01 0.01 98 1012.7
20260509124543 56 0 0.0 2.0 0.00 0.01 0.01 98 1012.5
20260509123043 55 0 0.0 2.0 0.00 0.01 0.01 98 1012.4
20260509121545 53 0 0.0 0.0 0.00 0.01 0.01 97 1012.2
20260509120052 52 0 0.0 0.0 0.00 0.01 0.01 97 1012.1
20260509114550 51 0 0.0 0.0 0.00 0.01 0.01 97 1012.0
20260509113052 53 0 0.0 1.0 0.00 0.01 0.01 97 1011.9
20260509111552 53 0 0.0 1.0 0.00 0.01 0.01 97 1011.9
20260509110045 53 0 0.0 2.0 0.00 0.01 0.01 98 1011.8
20260509104546 52 252 0.0 1.0 0.00 0.01 0.01 97 1011.9
20260509103047 53 0 0.0 1.0 0.01 0.01 0.01 97 1011.8
20260509101552 54 0 0.0 1.0 0.01 0.01 0.01 97 1011.9
20260509100043 53 242 0.0 2.0 0.01 0.01 0.01 98 1011.8
20260509094545 53 255 1.0 1.0 0.01 0.01 0.01 98 1011.9
20260509093055 52 0 0.0 0.0 0.00 0.00 0.00 97 1011.9
20260509091543 52 0 0.0 0.0 0.00 0.00 0.00 97 1012.1
20260509090043 51 0 0.0 1.0 0.00 0.00 0.00 97 1012.1
20260509084552 51 0 0.0 0.0 0.00 0.00 0.00 96 1011.7
20260509083044 52 0 0.0 0.0 0.00 0.00 0.00 96 1011.7
20260509081547 52 0 0.0 1.0 0.00 0.00 0.00 96 1011.6
20260509080049 53 0 0.0 1.0 0.00 0.00 0.00 96 1011.6
20260509074545 52 0 0.0 1.0 0.00 0.00 0.00 96 1011.7
20260509073048 53 0 0.0 0.0 0.00 0.00 0.00 96 1011.8
20260509071548 52 0 0.0 0.0 0.00 0.00 0.00 95 1011.8
20260509070052 52 0 0.0 0.0 0.00 0.00 0.00 95 1012.0
20260509064546 53 0 0.0 0.0 0.00 0.00 0.00 94 1011.9
20260509063046 53 0 0.0 0.0 0.00 0.00 0.00 94 1011.8
20260509061541 54 0 0.0 0.0 0.00 0.00 0.00 94 1011.9
20260509060047 54 0 0.0 0.0 0.00 0.00 0.00 93 1011.9
20260509054551 55 0 0.0 0.0 0.00 0.00 0.00 93 1012.0
20260509053044 56 0 0.0 0.0 0.00 0.00 0.00 92 1012.0
20260509051547 56 214 1.0 2.0 0.00 0.00 0.00 92 1012.3
20260509050047 57 65 0.0 0.0 0.00 0.00 0.00 92 1012.2
20260509044543 58 0 0.0 0.0 0.00 0.00 0.00 91 1012.3
20260509043047 58 0 0.0 0.0 0.00 0.00 0.00 91 1012.2
20260509041547 59 0 0.0 0.0 0.00 0.00 0.00 90 1012.0
20260509040045 59 0 0.0 0.0 0.00 0.00 0.00 89 1012.0
20260509034546 60 0 0.0 1.0 0.00 0.00 0.00 88 1011.9
20260509033054 60 0 0.0 0.0 0.00 0.00 0.00 87 1011.8
20260509031548 61 120 0.0 1.0 0.00 0.00 0.00 85 1011.6
20260509030049 62 219 1.0 2.0 0.00 0.00 0.00 85 1011.6
20260509024546 62 342 2.0 5.0 0.00 0.00 0.00 84 1011.3
20260509023045 62 0 0.0 1.0 0.00 0.00 0.00 82 1011.1
20260509021547 63 0 0.0 3.0 0.00 0.00 0.00 80 1010.7
20260509020046 64 330 2.0 7.0 0.00 0.00 0.00 78 1010.3
20260509014547 65 326 5.0 8.0 0.00 0.00 0.00 75 1009.9
20260509013052 66 322 1.0 3.0 0.00 0.00 0.00 71 1009.3
20260509011553 66 340 1.0 3.0 0.00 0.00 0.00 71 1008.7
20260509010051 67 259 2.0 8.0 0.00 0.00 0.00 69 1008.6
20260509004549 67 208 3.0 11.0 0.00 0.00 0.00 70 1007.9
20260509003041 66 105 1.0 6.0 0.00 0.00 0.00 72 1007.7
20260509001544 67 219 3.0 6.0 0.00 0.00 0.00 70 1008.9
20260509000046 67 237 1.0 5.0 0.00 0.00 0.00 71 1008.4
20260508234542 67 264 2.0 6.0 0.00 0.00 0.00 73 1008.0
20260508233100 67 190 5.0 8.0 0.00 0.00 0.00 73 1007.5
20260508231551 67 159 0.0 5.0 0.00 0.00 0.00 72 1008.7
20260508230053 68 146 1.0 1.0 0.00 0.00 0.00 73 1009.0
20260508224543 69 0 0.0 5.0 0.00 0.00 0.00 71 1009.6
20260508223045 69 212 1.0 3.0 0.00 0.00 0.00 64 1010.0
20260508221551 70 0 1.0 5.0 0.00 0.00 0.00 60 1010.1
20260508220046 71 309 1.0 3.0 0.00 0.00 0.00 61 1010.0
20260508214546 72 283 1.0 7.0 0.00 0.00 0.00 55 1010.0
20260508213045 74 0 1.0 5.0 0.00 0.00 0.00 56 1009.9
20260508211543 74 239 3.0 9.0 0.00 0.00 0.00 53 1009.7
20260508210039 75 248 5.0 11.0 0.00 0.00 0.00 52 1009.6
20260508204552 76 221 2.0 9.0 0.00 0.00 0.00 54 1009.7
20260508203054 77 235 5.0 11.0 0.00 0.00 0.00 51 1009.7
20260508201543 77 258 4.0 12.0 0.00 0.00 0.00 50 1009.9
20260508200052 76 231 7.0 12.0 0.00 0.00 0.00 50 1010.1
20260508194547 76 255 4.0 14.0 0.00 0.00 0.00 51 1010.4
20260508193104 76 273 5.0 12.0 0.00 0.00 0.00 50 1010.7